User: anonymous   Login
Location: Boiro
(42.6475°N, 8.8834°W)
Time: 01:30:10
(UTC+02:00)
Language:

Transit 4A - Orbit

View from above orbital plane
View from above orbital plane
View from above satellite
View from above satellite

Ground track
Ground track

The orbit data is extracted from the following two-line orbital elements,

1 00116U 61015A   24139.56934725  .00000267  00000-0  26373-3 0  9990
2 00116  66.8097 309.1955 0068553  85.1922 275.6981 13.92040041190969
Epoch (UTC): 18 May 2024 13:39:51
Eccentricity: 0.0068553
inclination: 66.8097°
perigee height: 871 km
apogee height: 971 km
right ascension of ascending node: 309.1955°
argument of perigee: 85.1922°
revolutions per day: 13.92040041
mean anomaly at epoch: 275.6981°
orbit number at epoch: 19096

The dashed part of the orbit path shows where the satellite is in the earth's shadow,  

DLR